Weather in Carnac

France     47°35′04″N   3°04′39″W
temp.,
°C
wind,
m/s
gust,
m/s
humid.,
%
clouds,
%
prec.,
mm/h
press.,
hPa
HPBL,
m
26 february, fri
fri2601:00+8n588046 0.0 1035298
04:00+7nne69780 0.0 1035320
07:00+7nne57810 0.0 1036297
10:00+7nne68810 0.0 1036319
13:00+9ne57690 0.0 1037653
16:00+10ne44710 0.0 103684
19:00+10ne68760 0.0 1036229
22:00+8ne710820 0.0 1038307
27 february, sat
sat2701:00+7ne79780 0.0 1039310
04:00+6ne78720 0.0 1038287
07:00+5ne79690 0.0 1039287
10:00+6ene811695 0.0 1039391
13:00+9ene710612 0.0 1038827
16:00+10ene69700 0.0 1036333
19:00+10ne610790 0.0 1035385
22:00+8ne913780 0.0 1035520
28 february, sun
sun2801:00+8ene913800 0.0 1035599
04:00+7ene811820 0.0 1033457
07:00+6ne912840 0.0 1032388
10:00+7ene913770 0.0 1031598
13:00+9ene913700 0.0 1030830
16:00+10ene812720 0.0 1028607
19:00+10ene813750 0.0 1027751
22:00+9ene1013750 0.0 1028633
1 march, mon
mon101:00+7ene911790 0.0 1028457
04:00+7ene912820 0.0 1026382
07:00+6ene9128442 0.0 1025389
10:00+6e911878 0.0 1025348
13:00+9e810824 0.0 1024456
16:00+11e57820 0.0 1023102
19:00+12ese56830 0.0 102370
22:00+11e710860 0.0 1023159
2 march, tue
tue201:00+10ese8128716 0.3 1023258
04:00+10se91292100 1.0 1022240
07:00+10se91390100 3.6 1023341
10:00+10se9129167 0.8 1024283
13:00+11s789433 1.2 1025128
16:00+11s68930 0.0 1025116
19:00+11ssw45890 0.0 102639
22:00+11sw45860 0.0 102847